Year,Month,Day,Hour,Minute,Value (Times are PST for temperature in C)
2017,03,07,00,00,0.40
2017,03,07,00,01,0.40
2017,03,07,00,02,0.40
2017,03,07,00,03,0.30
2017,03,07,00,04,0.30
2017,03,07,00,05,0.30
2017,03,07,00,06,0.30
2017,03,07,00,07,0.30
2017,03,07,00,08,0.40
2017,03,07,00,09,0.40
2017,03,07,00,10,0.50
2017,03,07,00,11,0.50
2017,03,07,00,12,0.50
2017,03,07,00,17,0.30
2017,03,07,00,18,0.30
2017,03,07,00,19,0.30
2017,03,07,00,20,0.40
2017,03,07,00,21,0.60
2017,03,07,00,22,0.70
2017,03,07,00,23,0.80
2017,03,07,00,24,0.80
2017,03,07,00,25,0.80
2017,03,07,00,26,0.90
2017,03,07,00,27,0.90
2017,03,07,00,28,1.00
2017,03,07,00,29,1.10
2017,03,07,00,30,1.20
2017,03,07,00,31,1.20
2017,03,07,00,32,1.20
2017,03,07,00,33,1.30
2017,03,07,00,34,1.30
2017,03,07,00,35,1.30
2017,03,07,00,36,1.30
2017,03,07,00,37,1.30
2017,03,07,00,38,1.30
2017,03,07,00,39,1.30
2017,03,07,00,40,1.30
2017,03,07,00,41,1.30
2017,03,07,00,42,1.30
2017,03,07,00,43,1.40
2017,03,07,00,44,1.40
2017,03,07,00,45,1.40
2017,03,07,00,46,1.50
2017,03,07,00,47,1.40
2017,03,07,00,48,1.40
2017,03,07,00,49,1.30
2017,03,07,00,50,1.30
2017,03,07,00,51,1.30
2017,03,07,00,52,1.30
2017,03,07,00,53,1.30
2017,03,07,00,54,1.30
2017,03,07,00,55,1.30
2017,03,07,00,56,1.40
2017,03,07,00,57,1.40
2017,03,07,00,58,1.40
2017,03,07,00,59,1.40
2017,03,07,01,00,1.40
2017,03,07,01,01,1.40
2017,03,07,01,02,1.40
2017,03,07,01,03,1.40
2017,03,07,01,04,1.30
2017,03,07,01,05,1.30
2017,03,07,01,06,1.30
2017,03,07,01,07,1.40
2017,03,07,01,08,1.40
2017,03,07,01,09,1.30
2017,03,07,01,10,1.30
2017,03,07,01,11,1.30
2017,03,07,01,12,1.40
2017,03,07,01,13,1.30
2017,03,07,01,14,1.30
2017,03,07,01,15,1.30
2017,03,07,01,16,1.30
2017,03,07,01,17,1.30
2017,03,07,01,18,1.30
2017,03,07,01,19,1.30
2017,03,07,01,20,1.30
2017,03,07,01,21,1.30
2017,03,07,01,22,1.30
2017,03,07,01,23,1.30
2017,03,07,01,24,1.40
2017,03,07,01,25,1.40
2017,03,07,01,26,1.50
2017,03,07,01,27,1.60
2017,03,07,01,28,1.60
2017,03,07,01,29,1.50
2017,03,07,01,30,1.50
2017,03,07,01,31,1.50
2017,03,07,01,32,1.40
2017,03,07,01,33,1.40
2017,03,07,01,34,1.30
2017,03,07,01,35,1.30
2017,03,07,01,36,1.40
2017,03,07,01,37,1.40
2017,03,07,01,38,1.40
2017,03,07,01,39,1.50
2017,03,07,01,40,1.50
2017,03,07,01,41,1.50
2017,03,07,01,42,1.50
2017,03,07,01,43,1.50
2017,03,07,01,44,1.40
2017,03,07,01,45,1.40
2017,03,07,01,46,1.40
2017,03,07,01,47,1.40
2017,03,07,01,48,1.50
2017,03,07,01,49,1.50
2017,03,07,01,50,1.60
2017,03,07,01,51,1.60
2017,03,07,01,52,1.60
2017,03,07,01,53,1.60
2017,03,07,01,54,1.60
2017,03,07,01,55,1.60
2017,03,07,01,56,1.60
2017,03,07,01,57,1.60
2017,03,07,01,58,1.60
2017,03,07,01,59,1.60
2017,03,07,02,00,1.50
2017,03,07,02,01,1.50
2017,03,07,02,02,1.50
2017,03,07,02,03,1.50
2017,03,07,02,04,1.50
2017,03,07,02,05,1.60
2017,03,07,02,06,1.60
2017,03,07,02,07,1.60
2017,03,07,02,08,1.60
2017,03,07,02,09,1.60
2017,03,07,02,10,1.60
2017,03,07,02,11,1.60
2017,03,07,02,12,1.60
2017,03,07,02,13,1.50
2017,03,07,02,14,1.50
2017,03,07,02,15,1.60
2017,03,07,02,16,1.60
2017,03,07,02,17,1.60
2017,03,07,06,29,0.60
2017,03,07,06,30,0.60
2017,03,07,06,31,0.60
2017,03,07,06,32,0.60
2017,03,07,06,33,0.60
2017,03,07,06,34,0.60
2017,03,07,06,35,0.60
2017,03,07,06,36,0.60
2017,03,07,06,37,0.60
2017,03,07,06,38,0.60
2017,03,07,06,39,0.60
2017,03,07,06,40,0.60
2017,03,07,06,41,0.60
2017,03,07,06,42,0.60
2017,03,07,06,43,0.60
2017,03,07,06,44,0.60
2017,03,07,06,45,0.60
2017,03,07,06,46,0.60
2017,03,07,06,47,0.60
2017,03,07,06,48,0.60
2017,03,07,06,49,0.60
2017,03,07,06,50,0.60
2017,03,07,06,51,0.60
2017,03,07,06,52,0.60
2017,03,07,06,53,0.60
2017,03,07,06,54,0.60
2017,03,07,06,55,0.60
2017,03,07,06,56,0.60
2017,03,07,06,57,0.60
2017,03,07,06,58,0.60
2017,03,07,06,59,0.60
2017,03,07,07,00,0.60
2017,03,07,07,01,0.60
2017,03,07,07,02,0.60
2017,03,07,07,03,0.60
2017,03,07,07,04,0.60
2017,03,07,07,05,0.60
2017,03,07,07,06,0.60
2017,03,07,07,07,0.60
2017,03,07,07,08,0.50
2017,03,07,07,09,0.50
2017,03,07,07,10,0.50
2017,03,07,07,11,0.50
2017,03,07,07,12,0.50
2017,03,07,07,13,0.50
2017,03,07,07,14,0.50
2017,03,07,07,15,0.50
2017,03,07,07,16,0.50
2017,03,07,07,17,0.50
2017,03,07,07,18,0.50
2017,03,07,07,19,0.50
2017,03,07,07,20,0.50
2017,03,07,07,21,0.50
2017,03,07,07,22,0.40
2017,03,07,07,23,0.40
2017,03,07,07,24,0.40
2017,03,07,07,25,0.40
2017,03,07,07,26,0.40
2017,03,07,07,27,0.40
2017,03,07,07,28,0.40
2017,03,07,07,29,0.40
2017,03,07,07,30,0.40
2017,03,07,07,31,0.40
2017,03,07,07,32,0.40
2017,03,07,07,33,0.40
2017,03,07,07,34,0.40
2017,03,07,07,35,0.30
2017,03,07,07,36,0.30
2017,03,07,07,37,0.30
2017,03,07,07,38,0.30
2017,03,07,07,39,0.30
2017,03,07,07,40,0.30
2017,03,07,07,41,0.30
2017,03,07,07,42,0.30
2017,03,07,07,43,0.30
2017,03,07,07,44,0.30
2017,03,07,07,45,0.30
2017,03,07,07,46,0.30
2017,03,07,07,47,0.30
2017,03,07,07,48,0.30
2017,03,07,07,49,0.30
2017,03,07,07,50,0.30
2017,03,07,07,51,0.30
2017,03,07,07,52,0.30
2017,03,07,07,53,0.30
2017,03,07,07,54,0.30
2017,03,07,07,55,0.30
2017,03,07,07,56,0.30
2017,03,07,07,57,0.30
2017,03,07,07,58,0.40
2017,03,07,07,59,0.40
2017,03,07,08,00,0.40
2017,03,07,08,01,0.40
2017,03,07,08,02,0.30
2017,03,07,08,03,0.30
2017,03,07,08,04,0.30
2017,03,07,08,05,0.30
2017,03,07,08,06,0.30
2017,03,07,08,07,0.30
2017,03,07,08,08,0.30
2017,03,07,08,09,0.30
2017,03,07,08,10,0.30
2017,03,07,08,11,0.30
2017,03,07,08,12,0.40
2017,03,07,08,13,0.40
2017,03,07,08,14,0.40
2017,03,07,08,15,0.40
2017,03,07,08,16,0.40
2017,03,07,08,17,0.40
2017,03,07,08,18,0.40
2017,03,07,08,19,0.40
2017,03,07,08,20,0.40
2017,03,07,08,21,0.40
2017,03,07,08,22,0.40
2017,03,07,08,23,0.40
2017,03,07,08,24,0.40
2017,03,07,08,25,0.40
2017,03,07,08,26,0.40
2017,03,07,08,27,0.40
2017,03,07,08,28,0.30
2017,03,07,08,29,0.30
2017,03,07,08,30,0.30
2017,03,07,08,31,0.30
2017,03,07,08,32,0.40
2017,03,07,08,33,0.40
2017,03,07,08,34,0.40
2017,03,07,08,35,0.40
2017,03,07,08,36,0.40
2017,03,07,08,37,0.40
2017,03,07,08,38,0.40
2017,03,07,08,39,0.40
2017,03,07,08,40,0.40
2017,03,07,08,41,0.40
2017,03,07,08,42,0.40
2017,03,07,08,43,0.40
2017,03,07,08,44,0.40
2017,03,07,08,45,0.40
2017,03,07,08,46,0.40
2017,03,07,08,47,0.40
2017,03,07,08,48,0.40
2017,03,07,08,49,0.40
2017,03,07,08,50,0.40
2017,03,07,08,51,0.40
2017,03,07,08,52,0.40
2017,03,07,08,53,0.40
2017,03,07,08,54,0.40
2017,03,07,08,55,0.40
2017,03,07,08,56,0.40
2017,03,07,08,57,0.40
2017,03,07,08,58,0.40
2017,03,07,08,59,0.40
2017,03,07,09,00,0.40
2017,03,07,09,01,0.40
2017,03,07,09,02,0.40
2017,03,07,09,03,0.40
2017,03,07,09,04,0.40
2017,03,07,09,05,0.40
2017,03,07,09,06,0.40
2017,03,07,09,07,0.40
2017,03,07,09,08,0.40
2017,03,07,09,09,0.40
2017,03,07,09,10,0.40
2017,03,07,09,11,0.40
2017,03,07,09,12,0.40
2017,03,07,09,13,0.40
2017,03,07,09,14,0.40
2017,03,07,09,15,0.40
2017,03,07,09,16,0.40
2017,03,07,09,17,0.40
2017,03,07,09,18,0.40
2017,03,07,09,19,0.40
2017,03,07,09,20,0.40
2017,03,07,09,21,0.40
2017,03,07,09,22,0.40
2017,03,07,09,23,0.40
2017,03,07,09,24,0.40
2017,03,07,09,25,0.40
2017,03,07,09,26,0.40
2017,03,07,09,27,0.40
2017,03,07,09,28,0.40
2017,03,07,09,29,0.40
2017,03,07,09,30,0.40
2017,03,07,09,31,0.40
2017,03,07,09,32,0.40
2017,03,07,09,33,0.40
2017,03,07,09,34,0.40
2017,03,07,09,35,0.50
2017,03,07,09,36,0.50
2017,03,07,09,37,0.50
2017,03,07,09,38,0.50
2017,03,07,09,39,0.50
2017,03,07,09,40,0.50
2017,03,07,09,41,0.50
2017,03,07,09,42,0.50
2017,03,07,09,43,0.50
2017,03,07,09,44,0.50
2017,03,07,09,45,0.50
2017,03,07,09,46,0.50
2017,03,07,09,47,0.50
2017,03,07,09,48,0.50
2017,03,07,09,49,0.50
2017,03,07,09,50,0.50
2017,03,07,09,51,0.50
2017,03,07,09,52,0.50
2017,03,07,09,53,0.50
2017,03,07,09,54,0.50
2017,03,07,09,55,0.50
2017,03,07,09,56,0.50
2017,03,07,09,57,0.60
2017,03,07,09,58,0.60
2017,03,07,09,59,0.60
2017,03,07,10,00,0.60
2017,03,07,10,01,0.60
2017,03,07,10,02,0.60
2017,03,07,10,03,0.60
2017,03,07,10,04,0.60
2017,03,07,10,05,0.60
2017,03,07,10,06,0.60
2017,03,07,10,07,0.60
2017,03,07,10,08,0.60
2017,03,07,10,09,0.60
2017,03,07,10,10,0.60
2017,03,07,10,11,0.60
2017,03,07,10,12,0.60
2017,03,07,10,13,0.60
2017,03,07,10,14,0.60
2017,03,07,10,15,0.60
2017,03,07,10,16,0.60
2017,03,07,10,17,0.60
2017,03,07,10,18,0.60
2017,03,07,10,19,0.50
2017,03,07,10,20,0.50
2017,03,07,10,21,0.50
2017,03,07,10,22,0.50
2017,03,07,10,23,0.50
2017,03,07,10,24,0.50
2017,03,07,10,25,0.50
2017,03,07,10,26,0.50
2017,03,07,10,27,0.50
2017,03,07,10,28,0.50
2017,03,07,10,29,0.50
2017,03,07,10,30,0.50
2017,03,07,10,31,0.50
2017,03,07,10,32,0.50
2017,03,07,10,33,0.50
2017,03,07,10,34,0.50
2017,03,07,10,35,0.50
2017,03,07,10,36,0.50
2017,03,07,10,37,0.50
2017,03,07,10,38,0.50
2017,03,07,10,39,0.50
2017,03,07,10,40,0.50
2017,03,07,10,41,0.50
2017,03,07,10,42,0.50
2017,03,07,10,43,0.50
2017,03,07,10,44,0.50
2017,03,07,10,45,0.50
2017,03,07,10,46,0.50
2017,03,07,10,47,0.50
2017,03,07,10,48,0.50
2017,03,07,10,49,0.50
2017,03,07,10,50,0.50
2017,03,07,10,51,0.50
2017,03,07,10,52,0.50
2017,03,07,10,53,0.50
2017,03,07,10,54,0.60
2017,03,07,10,55,0.60
2017,03,07,10,56,0.60
2017,03,07,10,57,0.60
2017,03,07,10,58,0.60
2017,03,07,10,59,0.60
2017,03,07,11,00,0.60
2017,03,07,11,01,0.60
2017,03,07,11,02,0.60
2017,03,07,11,03,0.60
2017,03,07,11,04,0.60
2017,03,07,11,05,0.50
2017,03,07,11,06,0.50
2017,03,07,11,07,0.50
2017,03,07,11,08,0.40
2017,03,07,11,09,0.40
2017,03,07,11,10,0.40
2017,03,07,11,11,0.50
2017,03,07,11,12,0.50
2017,03,07,11,13,0.50
2017,03,07,11,14,0.50
2017,03,07,11,15,0.50
2017,03,07,11,16,0.50
2017,03,07,11,17,0.50
2017,03,07,11,18,0.50
2017,03,07,11,19,0.50
2017,03,07,11,20,0.60
2017,03,07,11,21,0.60
2017,03,07,11,22,0.60
2017,03,07,11,23,0.60
2017,03,07,11,24,0.60
2017,03,07,11,25,0.60
2017,03,07,11,26,0.60
2017,03,07,11,27,0.60
2017,03,07,11,28,0.60
2017,03,07,11,29,0.70
2017,03,07,11,30,0.70
2017,03,07,11,31,0.70
2017,03,07,11,32,0.70
2017,03,07,11,33,0.80
2017,03,07,11,34,0.80
2017,03,07,11,35,0.80
2017,03,07,11,36,0.80
2017,03,07,11,37,0.80
2017,03,07,11,38,0.80
2017,03,07,11,39,0.80
2017,03,07,11,40,0.80
2017,03,07,11,41,0.80
2017,03,07,11,42,0.80
2017,03,07,11,43,0.80
2017,03,07,11,44,0.80
2017,03,07,11,45,0.80
2017,03,07,11,46,0.80
2017,03,07,11,47,0.80
2017,03,07,11,48,0.80
2017,03,07,11,49,0.80
2017,03,07,11,50,0.80
2017,03,07,11,51,0.70
2017,03,07,11,52,0.70
2017,03,07,11,53,0.70
2017,03,07,11,54,0.70
2017,03,07,11,55,0.70
2017,03,07,11,56,0.70
2017,03,07,11,57,0.70
2017,03,07,11,58,0.80
2017,03,07,11,59,0.80
2017,03,07,12,00,0.80
2017,03,07,12,01,0.80
2017,03,07,12,02,0.80
2017,03,07,12,03,0.80
2017,03,07,12,04,0.80
2017,03,07,12,05,0.80
2017,03,07,12,06,0.80
2017,03,07,12,07,0.90
2017,03,07,12,08,0.90
2017,03,07,12,09,0.80
2017,03,07,12,10,0.80
2017,03,07,12,11,0.80
2017,03,07,12,12,0.70
2017,03,07,12,13,0.70
2017,03,07,12,14,0.70
2017,03,07,12,15,0.70
2017,03,07,12,16,0.70
2017,03,07,12,17,0.70
2017,03,07,12,18,0.70
2017,03,07,12,19,0.70
2017,03,07,12,20,0.70
2017,03,07,12,21,0.80
2017,03,07,12,22,0.80
2017,03,07,12,23,0.80
2017,03,07,12,24,0.80
2017,03,07,12,25,0.80
2017,03,07,12,26,0.80
2017,03,07,12,27,0.80
2017,03,07,12,28,0.90
2017,03,07,12,29,0.90
2017,03,07,12,30,0.90
2017,03,07,12,31,1.00
2017,03,07,12,32,1.00
2017,03,07,12,33,1.00
2017,03,07,12,34,1.10
2017,03,07,12,35,1.10
2017,03,07,12,36,1.10
2017,03,07,12,37,1.10
2017,03,07,12,38,1.00
2017,03,07,12,39,1.00
2017,03,07,12,40,1.00
2017,03,07,12,41,1.00
2017,03,07,12,42,0.90
2017,03,07,12,43,0.90
2017,03,07,12,44,0.90
2017,03,07,12,45,0.80
2017,03,07,12,46,0.80
2017,03,07,12,47,0.80
2017,03,07,12,48,0.80
2017,03,07,12,49,0.70
2017,03,07,12,50,0.70
2017,03,07,12,51,0.70
2017,03,07,12,52,0.70
2017,03,07,12,53,0.70
2017,03,07,12,54,0.70
2017,03,07,12,55,0.70
2017,03,07,12,56,0.70
2017,03,07,12,57,0.80
2017,03,07,12,58,0.80
2017,03,07,12,59,0.80
2017,03,07,13,00,0.80
2017,03,07,13,01,0.80
2017,03,07,13,02,0.90
2017,03,07,13,03,0.90
2017,03,07,13,04,0.90
2017,03,07,13,05,0.90
2017,03,07,13,06,0.90
2017,03,07,13,07,0.90
2017,03,07,13,08,0.90
2017,03,07,13,09,1.00
2017,03,07,13,10,1.00
2017,03,07,13,11,1.00
2017,03,07,13,12,1.10
2017,03,07,13,13,1.10
2017,03,07,13,14,1.10
2017,03,07,13,15,1.10
2017,03,07,13,16,1.20
2017,03,07,13,17,1.20
2017,03,07,13,18,1.20
2017,03,07,13,19,1.20
2017,03,07,13,20,1.20
2017,03,07,13,21,1.20
2017,03,07,13,22,1.20
2017,03,07,13,23,1.20
2017,03,07,13,24,1.20
2017,03,07,13,25,1.20
2017,03,07,13,26,1.20
2017,03,07,13,27,1.30
2017,03,07,13,28,1.30
2017,03,07,13,29,1.30
2017,03,07,13,30,1.30
2017,03,07,13,31,1.30
2017,03,07,13,32,1.30
2017,03,07,13,33,1.30
2017,03,07,13,34,1.30
2017,03,07,13,35,1.40
2017,03,07,13,36,1.40
2017,03,07,13,37,1.50
2017,03,07,13,38,1.50
2017,03,07,13,39,1.50
2017,03,07,13,40,1.60
2017,03,07,13,41,1.60
2017,03,07,13,42,1.60
2017,03,07,13,43,1.60
2017,03,07,13,44,1.60
2017,03,07,13,45,1.50
2017,03,07,13,46,1.50
2017,03,07,13,47,1.50
2017,03,07,13,48,1.50
2017,03,07,13,49,1.40
2017,03,07,13,50,1.40
2017,03,07,13,51,1.40
2017,03,07,13,52,1.40
2017,03,07,13,53,1.40
2017,03,07,13,54,1.40
2017,03,07,13,55,1.40
2017,03,07,13,56,1.40
2017,03,07,13,57,1.40
2017,03,07,13,58,1.40
2017,03,07,13,59,1.40
2017,03,07,14,00,1.40
2017,03,07,14,01,1.40
2017,03,07,14,02,1.50
2017,03,07,14,03,1.50
2017,03,07,14,04,1.50
2017,03,07,14,05,1.50
2017,03,07,14,06,1.60
2017,03,07,14,07,1.60
2017,03,07,14,08,1.60
2017,03,07,14,09,1.60
2017,03,07,14,10,1.60
2017,03,07,14,11,1.60
2017,03,07,14,12,1.60
2017,03,07,14,13,1.60
2017,03,07,14,14,1.60
2017,03,07,14,15,1.60
2017,03,07,14,16,1.60
2017,03,07,14,17,1.70
2017,03,07,14,18,1.70
2017,03,07,14,19,1.70
2017,03,07,14,20,1.70
2017,03,07,14,21,1.70
2017,03,07,14,22,1.80
2017,03,07,14,23,1.80
2017,03,07,14,24,1.80
2017,03,07,14,25,1.70
2017,03,07,14,26,1.70
2017,03,07,14,27,1.70
2017,03,07,14,28,1.70
2017,03,07,14,29,1.70
2017,03,07,14,30,1.70
2017,03,07,14,31,1.60
2017,03,07,14,32,1.60
2017,03,07,14,33,1.60
2017,03,07,14,34,1.60
2017,03,07,14,35,1.60
2017,03,07,14,36,1.60
2017,03,07,14,37,1.60
2017,03,07,14,38,1.60
2017,03,07,14,39,1.60
2017,03,07,14,40,1.60
2017,03,07,14,41,1.60
2017,03,07,14,42,1.60
2017,03,07,14,43,1.60
2017,03,07,14,44,1.60
2017,03,07,14,45,1.60
2017,03,07,14,46,1.60
2017,03,07,14,47,1.60
2017,03,07,14,48,1.70
2017,03,07,14,49,1.70
2017,03,07,14,50,1.70
2017,03,07,14,51,1.70
2017,03,07,14,52,1.70
2017,03,07,14,53,1.70
2017,03,07,14,54,1.70
2017,03,07,14,55,1.70
2017,03,07,14,56,1.70
2017,03,07,14,57,1.80
2017,03,07,14,58,1.80
2017,03,07,14,59,1.80
2017,03,07,15,00,1.80
2017,03,07,15,01,1.90
2017,03,07,15,02,1.90
2017,03,07,15,03,1.90
2017,03,07,15,04,1.90
2017,03,07,15,05,1.80
2017,03,07,15,06,1.80
2017,03,07,15,07,1.80
2017,03,07,15,08,1.80
2017,03,07,15,09,1.80
2017,03,07,15,10,1.80
2017,03,07,15,11,1.80
2017,03,07,15,12,1.80
2017,03,07,15,13,1.80
2017,03,07,15,14,1.80
2017,03,07,15,15,1.80
2017,03,07,15,16,1.80
2017,03,07,15,17,1.80
2017,03,07,15,18,1.80
2017,03,07,15,19,1.80
2017,03,07,15,20,1.80
2017,03,07,15,21,1.80
2017,03,07,15,22,1.80
2017,03,07,15,23,1.80
2017,03,07,15,24,1.80
2017,03,07,15,25,1.80
2017,03,07,15,26,1.80
2017,03,07,15,27,1.80
2017,03,07,15,28,1.80
2017,03,07,15,29,1.80
2017,03,07,15,30,1.80
2017,03,07,15,31,1.80
2017,03,07,15,32,1.80
2017,03,07,15,33,1.80
2017,03,07,15,34,1.80
2017,03,07,15,35,1.80
2017,03,07,15,36,1.80
2017,03,07,15,37,1.80
2017,03,07,15,38,1.80
2017,03,07,15,39,1.80
2017,03,07,15,40,1.80
2017,03,07,15,41,1.80
2017,03,07,15,42,1.80
2017,03,07,15,43,1.80
2017,03,07,15,44,1.80
2017,03,07,15,45,1.80
2017,03,07,15,46,1.80
2017,03,07,15,47,1.80
2017,03,07,15,48,1.80
2017,03,07,15,49,1.80
2017,03,07,15,50,1.80
2017,03,07,15,51,1.70
2017,03,07,15,52,1.70
2017,03,07,15,53,1.70
2017,03,07,15,54,1.70
2017,03,07,15,55,1.70
2017,03,07,15,56,1.70
2017,03,07,15,57,1.70
2017,03,07,15,58,1.60
2017,03,07,15,59,1.60
2017,03,07,16,00,1.60
2017,03,07,16,01,1.60
2017,03,07,16,02,1.60
2017,03,07,16,03,1.70
2017,03,07,16,04,1.70
2017,03,07,16,05,1.70
2017,03,07,16,06,1.70
2017,03,07,16,07,1.70
2017,03,07,16,08,1.70
2017,03,07,16,09,1.70
2017,03,07,16,10,1.70
2017,03,07,16,11,1.70
2017,03,07,16,12,1.70
2017,03,07,16,13,1.70
2017,03,07,16,14,1.70
2017,03,07,16,15,1.70
2017,03,07,16,16,1.70
2017,03,07,16,17,1.60
2017,03,07,16,18,1.60
2017,03,07,16,19,1.60
2017,03,07,16,20,1.60
2017,03,07,16,21,1.60
2017,03,07,16,22,1.60
2017,03,07,16,23,1.60
2017,03,07,16,24,1.60
2017,03,07,16,25,1.60
2017,03,07,16,26,1.60
2017,03,07,16,27,1.60
2017,03,07,16,28,1.60
2017,03,07,16,29,1.60
2017,03,07,16,30,1.60
2017,03,07,16,31,1.60
2017,03,07,16,32,1.60
2017,03,07,16,33,1.60
2017,03,07,16,34,1.60
2017,03,07,16,35,1.60
2017,03,07,16,36,1.60
2017,03,07,16,37,1.60
2017,03,07,16,38,1.60
2017,03,07,16,39,1.60
2017,03,07,16,40,1.60
2017,03,07,16,41,1.60
2017,03,07,16,42,1.60
2017,03,07,16,43,1.60
2017,03,07,16,44,1.60
2017,03,07,16,45,1.50
2017,03,07,16,46,1.50
2017,03,07,16,47,1.50
2017,03,07,16,48,1.50
2017,03,07,16,49,1.50
2017,03,07,16,50,1.50
2017,03,07,16,51,1.40
2017,03,07,16,52,1.40
2017,03,07,16,53,1.40
2017,03,07,16,54,1.40
2017,03,07,16,55,1.40
2017,03,07,16,56,1.40
2017,03,07,16,57,1.40
2017,03,07,16,58,1.40
2017,03,07,16,59,1.40
2017,03,07,17,00,1.40
2017,03,07,17,01,1.40
2017,03,07,17,02,1.40
2017,03,07,17,03,1.40
2017,03,07,17,04,1.40
2017,03,07,17,05,1.40
2017,03,07,17,06,1.40
2017,03,07,17,07,1.40
2017,03,07,17,08,1.40
2017,03,07,17,09,1.40
2017,03,07,17,10,1.30
2017,03,07,17,11,1.30
2017,03,07,17,12,1.30
2017,03,07,17,13,1.30
2017,03,07,17,14,1.30
2017,03,07,17,15,1.30
2017,03,07,17,16,1.30
2017,03,07,17,17,1.30
2017,03,07,17,18,1.40
2017,03,07,17,19,1.40
2017,03,07,17,20,1.40
2017,03,07,17,21,1.40
2017,03,07,17,22,1.40
2017,03,07,17,23,1.40
2017,03,07,17,24,1.40
2017,03,07,17,25,1.40
2017,03,07,17,26,1.40
2017,03,07,17,27,1.40
2017,03,07,17,28,1.40
2017,03,07,17,29,1.40
2017,03,07,17,30,1.40
2017,03,07,17,31,1.40
2017,03,07,17,32,1.40
2017,03,07,17,33,1.40
2017,03,07,17,34,1.40
2017,03,07,17,35,1.30
2017,03,07,17,36,1.30
2017,03,07,17,37,1.30
2017,03,07,17,38,1.30
2017,03,07,17,39,1.40
2017,03,07,17,40,1.40
2017,03,07,17,41,1.40
2017,03,07,17,42,1.40
2017,03,07,17,43,1.40
2017,03,07,17,44,1.40
2017,03,07,17,45,1.40
2017,03,07,17,46,1.40
2017,03,07,17,47,1.40
2017,03,07,17,48,1.40
2017,03,07,17,49,1.30
2017,03,07,17,50,1.30
2017,03,07,17,51,1.30
2017,03,07,17,52,1.30
2017,03,07,17,53,1.30
2017,03,07,17,54,1.30
2017,03,07,17,55,1.30
2017,03,07,17,56,1.30
2017,03,07,17,57,1.30
2017,03,07,17,58,1.30
2017,03,07,17,59,1.30
2017,03,07,18,00,1.30
2017,03,07,18,01,1.30
2017,03,07,18,02,1.30
2017,03,07,18,03,1.30
2017,03,07,18,04,1.40
2017,03,07,18,05,1.40
2017,03,07,18,06,1.40
2017,03,07,18,07,1.40
2017,03,07,18,08,1.40
2017,03,07,18,09,1.40
2017,03,07,18,10,1.30
2017,03,07,18,11,1.30
2017,03,07,18,12,1.30
2017,03,07,18,13,1.30
2017,03,07,18,14,1.30
2017,03,07,18,15,1.30
2017,03,07,18,16,1.30
2017,03,07,18,17,1.30
2017,03,07,18,18,1.30
2017,03,07,18,19,1.30
2017,03,07,18,20,1.30
2017,03,07,18,21,1.30
2017,03,07,18,22,1.40
2017,03,07,18,23,1.40
2017,03,07,18,24,1.50
2017,03,07,18,25,1.50
2017,03,07,18,26,1.60
2017,03,07,18,27,1.60
2017,03,07,18,28,1.60
2017,03,07,18,29,1.60
2017,03,07,18,30,1.70
2017,03,07,18,31,1.70
2017,03,07,18,32,1.70
2017,03,07,18,33,1.70
2017,03,07,18,34,1.60
2017,03,07,18,35,1.60
2017,03,07,18,36,1.60
2017,03,07,18,37,1.60
2017,03,07,18,38,1.60
2017,03,07,18,39,1.70
2017,03,07,18,40,1.70
2017,03,07,18,41,1.70
2017,03,07,18,42,1.70
2017,03,07,18,43,1.70
2017,03,07,18,44,1.70
2017,03,07,18,45,1.80
2017,03,07,18,46,1.90
2017,03,07,18,47,1.90
2017,03,07,18,48,1.90
2017,03,07,18,49,1.90
2017,03,07,18,50,1.90
2017,03,07,18,51,2.00
2017,03,07,18,52,2.00
2017,03,07,18,53,2.00
2017,03,07,18,54,2.00
2017,03,07,18,55,2.00
2017,03,07,18,56,2.00
2017,03,07,18,57,2.00
2017,03,07,18,58,1.90
2017,03,07,18,59,1.90
2017,03,07,19,00,1.90
2017,03,07,19,01,1.80
2017,03,07,19,02,1.80
2017,03,07,19,03,1.80
2017,03,07,19,04,1.80
2017,03,07,19,05,1.80
2017,03,07,19,06,1.80
2017,03,07,19,07,1.70
2017,03,07,19,08,1.60
2017,03,07,19,09,1.50
2017,03,07,19,10,1.40
2017,03,07,19,11,1.40
2017,03,07,19,12,1.40
2017,03,07,19,13,1.30
2017,03,07,19,14,1.30
2017,03,07,19,15,1.30
2017,03,07,19,16,1.40
2017,03,07,19,17,1.40
2017,03,07,19,18,1.50
2017,03,07,19,19,1.50
2017,03,07,19,20,1.60
2017,03,07,19,21,1.60
2017,03,07,19,22,1.70
2017,03,07,19,23,1.80
2017,03,07,19,24,1.80
2017,03,07,19,25,1.80
2017,03,07,19,26,1.80
2017,03,07,19,27,1.70
2017,03,07,19,28,1.70
2017,03,07,19,29,1.70
2017,03,07,19,30,1.70
2017,03,07,19,31,1.70
2017,03,07,19,32,1.60
2017,03,07,19,33,1.60
2017,03,07,19,34,1.70
2017,03,07,19,35,1.70
2017,03,07,19,36,1.70
2017,03,07,19,37,1.70
2017,03,07,19,38,1.70
2017,03,07,19,39,1.70
2017,03,07,19,40,1.70
2017,03,07,19,41,1.70
2017,03,07,19,42,1.70
2017,03,07,19,43,1.70
2017,03,07,19,44,1.70
2017,03,07,19,45,1.70
2017,03,07,19,46,1.70
2017,03,07,19,47,1.60
2017,03,07,19,48,1.70
2017,03,07,19,49,1.60
2017,03,07,19,50,1.60
2017,03,07,19,51,1.60
2017,03,07,19,52,1.70
2017,03,07,19,53,1.70
2017,03,07,19,54,1.70
2017,03,07,19,55,1.70
2017,03,07,19,56,1.70
2017,03,07,19,57,1.70
2017,03,07,19,58,1.70
2017,03,07,19,59,1.60
2017,03,07,20,00,1.60
2017,03,07,20,01,1.60
2017,03,07,20,02,1.60
2017,03,07,20,03,1.50
2017,03,07,20,04,1.50
2017,03,07,20,05,1.40
2017,03,07,20,06,1.40
2017,03,07,20,07,1.40
2017,03,07,20,08,1.40
2017,03,07,20,09,1.40
2017,03,07,20,10,1.40
2017,03,07,20,11,1.40
2017,03,07,20,12,1.40
2017,03,07,20,13,1.40
2017,03,07,20,14,1.40
2017,03,07,20,15,1.40
2017,03,07,20,16,1.40
2017,03,07,20,17,1.40
2017,03,07,20,18,1.40
2017,03,07,20,19,1.40
2017,03,07,20,20,1.40
2017,03,07,20,21,1.40
2017,03,07,20,22,1.40
2017,03,07,20,23,1.40
2017,03,07,20,24,1.40
2017,03,07,20,25,1.40
2017,03,07,20,26,1.50
2017,03,07,20,27,1.60
2017,03,07,20,28,1.60
2017,03,07,20,29,1.60
2017,03,07,20,30,1.60
2017,03,07,20,31,1.70
2017,03,07,20,32,1.70
2017,03,07,20,33,1.70
2017,03,07,20,34,1.70
2017,03,07,20,35,1.70
2017,03,07,20,36,1.70
2017,03,07,20,37,1.70
2017,03,07,20,38,1.80
2017,03,07,20,39,1.80
2017,03,07,20,40,1.80
2017,03,07,20,41,1.80
2017,03,07,20,42,1.80
2017,03,07,20,43,1.80
2017,03,07,20,44,1.80
2017,03,07,20,45,1.80
2017,03,07,20,46,1.80
2017,03,07,20,47,1.90
2017,03,07,20,48,1.90
2017,03,07,20,49,1.80
2017,03,07,20,50,1.80
2017,03,07,20,51,1.80
2017,03,07,20,52,1.70
2017,03,07,20,53,1.70
2017,03,07,20,54,1.70
2017,03,07,20,55,1.70
2017,03,07,20,56,1.70
2017,03,07,20,57,1.70
2017,03,07,20,58,1.80
2017,03,07,20,59,1.80
2017,03,07,21,00,1.80
2017,03,07,21,01,1.90
2017,03,07,21,02,2.00
2017,03,07,21,03,2.00
2017,03,07,21,04,2.10
2017,03,07,21,05,2.20
2017,03,07,21,06,2.30
2017,03,07,21,07,2.30
2017,03,07,21,08,2.40
2017,03,07,21,09,2.50
2017,03,07,21,10,2.50
2017,03,07,21,11,2.60
2017,03,07,21,12,2.60
2017,03,07,21,13,2.70
2017,03,07,21,14,2.80
2017,03,07,21,15,2.80
2017,03,07,21,16,2.80
2017,03,07,21,17,2.80
2017,03,07,21,18,2.80
2017,03,07,21,19,2.80
2017,03,07,21,20,2.80
2017,03,07,21,21,2.80
2017,03,07,21,22,2.80
2017,03,07,21,23,2.80
2017,03,07,21,24,2.70
2017,03,07,21,25,2.70
2017,03,07,21,26,2.60
2017,03,07,21,27,2.60
2017,03,07,21,28,2.60
2017,03,07,21,29,2.60
2017,03,07,21,30,2.60
2017,03,07,21,31,2.70
2017,03,07,21,32,2.70
2017,03,07,21,33,2.80
2017,03,07,21,34,2.80
2017,03,07,21,35,2.80
2017,03,07,21,36,2.80
2017,03,07,21,37,2.80
2017,03,07,21,38,2.70
2017,03,07,21,39,2.60
2017,03,07,21,40,2.40
2017,03,07,21,41,2.20
2017,03,07,21,42,2.10
2017,03,07,21,43,2.00
2017,03,07,21,44,1.90
2017,03,07,21,45,1.90
2017,03,07,21,46,1.80
2017,03,07,21,47,1.70
2017,03,07,21,48,1.70
2017,03,07,21,49,1.60
2017,03,07,21,50,1.60
2017,03,07,21,51,1.60
2017,03,07,21,52,1.50
2017,03,07,21,53,1.50
2017,03,07,21,54,1.40
2017,03,07,21,55,1.40
2017,03,07,21,56,1.40
2017,03,07,21,57,1.40
2017,03,07,21,58,1.30
2017,03,07,21,59,1.30
2017,03,07,22,00,1.30
2017,03,07,22,01,1.20
2017,03,07,22,02,1.20
2017,03,07,22,03,1.20
2017,03,07,22,04,1.20
2017,03,07,22,05,1.10
2017,03,07,22,06,1.10
2017,03,07,22,07,1.10
2017,03,07,22,08,1.00
2017,03,07,22,09,1.00
2017,03,07,22,10,0.90
2017,03,07,22,11,0.90
2017,03,07,22,12,0.90
2017,03,07,22,13,0.90
2017,03,07,22,14,0.80
2017,03,07,22,15,0.80
2017,03,07,22,16,0.80
2017,03,07,22,17,0.80
2017,03,07,22,18,0.80
2017,03,07,22,19,0.90
2017,03,07,22,20,0.90
2017,03,07,22,21,0.90